Location: *
(58.4167°N, 22.5000°E)
Time: 01:42:54
(UTC+00:00)

Cosmos 2100 Rocket - Pass Details

Date: 22 September 2019
Orbit: 956 x 1001 km, 82.9° (Epoch: 18 October)

Event Time Altitude Azimuth Distance (km) Brightness Sun altitude
Rises 20:49:33 0° 346° (NNW) 3,735 8.2 -28.6°
Reaches altitude 10° 20:52:06 10° 346° (NNW) 2,778 7.3 -28.7°
Maximum altitude 20:58:28 76° 262° (W) 1,024 4.0 -29.1°
Enters shadow 20:58:51 73° 227° (SW) 1,035 3.9 -29.1°
